• In Denmark
  • List of Countries
  • For 7 days
  • Water Temperature
  • Satellite Maps
  • Weather Map
  • Weather Widgets
  • user-avatar
    Login

    Hourly Weather Ganja

    Today, 22 June, Friday

    Time Temperature Precipitation Wind Pressure Humidity
    00:00 +24°C° 0 mm 3 mps 725 mmHg 58%
    01:00 +23°C° 0 mm 2 mps 725 mmHg 58%
    02:00 +23°C° 0 mm 2 mps 725 mmHg 59%
    03:00 +22°C° 0 mm 1 mps 725 mmHg 60%
    04:00 +23°C° 0 mm 1 mps 725 mmHg 59%
    05:00 +23°C° 0 mm 1 mps 725 mmHg 58%
    06:00 +24°C° 0 mm 1 mps 724 mmHg 57%
    07:00 +25°C° 0 mm 1 mps 724 mmHg 53%
    08:00 +27°C° 0 mm 1 mps 724 mmHg 49%
    09:00 +28°C° 0 mm 1 mps 724 mmHg 45%
    10:00 +29°C° 0 mm 2 mps 724 mmHg 42%
    11:00 +30°C° 0 mm 3 mps 723 mmHg 40%
    12:00 +32°C° 0 mm 4 mps 723 mmHg 37%
    13:00 +33°C° 0.1 mm 4 mps 723 mmHg 36%
    14:00 +33°C° 0.1 mm 4 mps 722 mmHg 34%
    15:00 +34°C° 0.1 mm 5 mps 722 mmHg 33%
    16:00 +33°C° 0.1 mm 4 mps 722 mmHg 35%
    17:00 +32°C° 0.1 mm 4 mps 722 mmHg 37%
    18:00 +31°C° 0.1 mm 3 mps 722 mmHg 39%
    19:00 +29°C° 0 mm 3 mps 722 mmHg 40%
    20:00 +28°C° 0 mm 3 mps 722 mmHg 42%
    21:00 +27°C° 0 mm 2 mps 723 mmHg 44%
    22:00 +26°C° 0 mm 3 mps 723 mmHg 45%
    23:00 +25°C° 0 mm 3 mps 723 mmHg 46%

    Tomorrow, 23 June, Saturday

    Time Temperature Precipitation Wind Pressure Humidity
    00:00 +25°C° 0 mm 3 mps 723 mmHg 47%
    01:00 +24°C° 0 mm 3 mps 723 mmHg 48%
    02:00 +23°C° 0 mm 2 mps 723 mmHg 49%
    03:00 +23°C° 0 mm 2 mps 723 mmHg 50%
    04:00 +23°C° 0 mm 2 mps 723 mmHg 50%
    05:00 +24°C° 0 mm 1 mps 723 mmHg 50%
    06:00 +24°C° 0 mm 1 mps 723 mmHg 50%
    07:00 +26°C° 0 mm 1 mps 723 mmHg 46%
    08:00 +27°C° 0 mm 1 mps 723 mmHg 41%
    09:00 +28°C° 0 mm 1 mps 722 mmHg 37%
    10:00 +30°C° 0 mm 2 mps 722 mmHg 36%
    11:00 +31°C° 0 mm 2 mps 722 mmHg 34%
    12:00 +33°C° 0 mm 3 mps 722 mmHg 33%
    13:00 +33°C° 0.1 mm 3 mps 722 mmHg 32%
    14:00 +34°C° 0.1 mm 3 mps 721 mmHg 32%
    15:00 +34°C° 0.1 mm 4 mps 721 mmHg 31%
    16:00 +34°C° 0 mm 3 mps 721 mmHg 33%
    17:00 +33°C° 0 mm 3 mps 721 mmHg 35%
    18:00 +33°C° 0 mm 3 mps 721 mmHg 37%
    19:00 +30°C° 0 mm 3 mps 721 mmHg 38%
    20:00 +29°C° 0 mm 3 mps 722 mmHg 40%
    21:00 +27°C° 0 mm 2 mps 722 mmHg 42%
    22:00 +26°C° 0 mm 2 mps 722 mmHg 43%
    23:00 +25°C° 0 mm 2 mps 723 mmHg 43%

    Day after tomorrow, 24 June, Sunday

    Time Temperature Precipitation Wind Pressure Humidity
    00:00 +25°C° 0 mm 2 mps 723 mmHg 44%
    01:00 +24°C° 0 mm 2 mps 723 mmHg 45%
    02:00 +24°C° 0 mm 2 mps 723 mmHg 46%
    03:00 +23°C° 0 mm 1 mps 723 mmHg 47%
    04:00 +24°C° 0 mm 2 mps 723 mmHg 47%
    05:00 +24°C° 0 mm 2 mps 723 mmHg 47%
    06:00 +25°C° 0 mm 2 mps 723 mmHg 47%
    07:00 +26°C° 0 mm 2 mps 723 mmHg 44%
    08:00 +28°C° 0 mm 2 mps 723 mmHg 40%
    09:00 +29°C° 0 mm 2 mps 723 mmHg 36%
    10:00 +31°C° 0 mm 2 mps 723 mmHg 35%
    11:00 +32°C° 0 mm 2 mps 722 mmHg 33%
    12:00 +34°C° 0 mm 2 mps 722 mmHg 32%
    13:00 +34°C° 0 mm 2 mps 722 mmHg 31%
    14:00 +35°C° 0 mm 2 mps 722 mmHg 31%
    15:00 +35°C° 0 mm 3 mps 722 mmHg 30%
    16:00 +35°C° 0 mm 3 mps 722 mmHg 32%
    17:00 +35°C° 0 mm 3 mps 722 mmHg 33%
    18:00 +34°C° 0 mm 3 mps 722 mmHg 35%
    19:00 +32°C° 0 mm 2 mps 723 mmHg 37%
    20:00 +30°C° 0 mm 2 mps 723 mmHg 39%
    21:00 +28°C° 0 mm 2 mps 724 mmHg 41%
    22:00 +27°C° 0 mm 2 mps 724 mmHg 42%
    23:00 +27°C° 0 mm 2 mps 724 mmHg 42%

    25 June, Monday

    Time Temperature Precipitation Wind Pressure Humidity
    00:00 +26°C° 0 mm 2 mps 724 mmHg 43%
    01:00 +25°C° 0 mm 2 mps 724 mmHg 44%
    02:00 +25°C° 0 mm 2 mps 724 mmHg 44%
    03:00 +24°C° 0 mm 2 mps 724 mmHg 45%
    04:00 +25°C° 0 mm 2 mps 724 mmHg 45%
    05:00 +25°C° 0 mm 2 mps 725 mmHg 46%
    06:00 +26°C° 0 mm 2 mps 725 mmHg 46%
    07:00 +28°C° 0 mm 2 mps 725 mmHg 42%
    08:00 +29°C° 0 mm 2 mps 725 mmHg 39%
    09:00 +30°C° 0 mm 2 mps 725 mmHg 35%
    10:00 +32°C° 0 mm 2 mps 725 mmHg 35%
    11:00 +34°C° 0 mm 2 mps 724 mmHg 34%
    12:00 +35°C° 0 mm 2 mps 724 mmHg 33%
    13:00 +35°C° 0 mm 3 mps 724 mmHg 32%
    14:00 +36°C° 0 mm 3 mps 724 mmHg 32%
    15:00 +37°C° 0 mm 4 mps 724 mmHg 31%
    16:00 +36°C° 0 mm 4 mps 724 mmHg 33%
    17:00 +36°C° 0 mm 4 mps 724 mmHg 34%
    18:00 +35°C° 0 mm 4 mps 724 mmHg 36%
    19:00 +34°C° 0 mm 3 mps 724 mmHg 38%
    20:00 +31°C° 0 mm 3 mps 725 mmHg 41%
    21:00 +29°C° 0 mm 2 mps 725 mmHg 43%
    22:00 +28°C° 0 mm 2 mps 725 mmHg 44%
    23:00 +28°C° 0 mm 2 mps 725 mmHg 44%

    26 June, Tuesday

    Time Temperature Precipitation Wind Pressure Humidity
    00:00 +27°C° 0 mm 3 mps 725 mmHg 44%
    01:00 +26°C° 0 mm 2 mps 725 mmHg 45%
    02:00 +26°C° 0 mm 2 mps 725 mmHg 46%
    03:00 +25°C° 0 mm 2 mps 725 mmHg 46%
    04:00 +26°C° 0 mm 2 mps 725 mmHg 46%
    05:00 +26°C° 0 mm 2 mps 725 mmHg 46%
    06:00 +27°C° 0 mm 2 mps 725 mmHg 46%
    07:00 +28°C° 0 mm 1 mps 724 mmHg 43%
    08:00 +30°C° 0 mm 1 mps 724 mmHg 39%
    09:00 +31°C° 0 mm 1 mps 724 mmHg 35%
    10:00 +34°C° 0 mm 2 mps 724 mmHg 33%
    11:00 +35°C° 0 mm 2 mps 723 mmHg 32%
    12:00 +36°C° 0 mm 2 mps 723 mmHg 31%
    13:00 +37°C° 0 mm 3 mps 723 mmHg 30%
    14:00 +37°C° 0 mm 3 mps 722 mmHg 30%
    15:00 +38°C° 0 mm 3 mps 722 mmHg 29%
    16:00 +37°C° 0 mm 3 mps 722 mmHg 31%
    17:00 +37°C° 0 mm 3 mps 722 mmHg 32%
    18:00 +37°C° 0 mm 3 mps 722 mmHg 34%
    19:00 +35°C° 0 mm 3 mps 722 mmHg 36%
    20:00 +33°C° 0 mm 3 mps 723 mmHg 38%
    21:00 +30°C° 0 mm 3 mps 723 mmHg 41%
    22:00 +29°C° 0 mm 3 mps 723 mmHg 42%
    23:00 +28°C° 0 mm 3 mps 723 mmHg 42%

    27 June, Wednesday

    Time Temperature Precipitation Wind Pressure Humidity
    00:00 +28°C° 0 mm 3 mps 723 mmHg 43%
    01:00 +27°C° 0 mm 2 mps 723 mmHg 44%
    02:00 +27°C° 0 mm 2 mps 722 mmHg 44%
    03:00 +26°C° 0 mm 2 mps 722 mmHg 44%
    04:00 +27°C° 0 mm 2 mps 722 mmHg 44%
    05:00 +27°C° 0 mm 2 mps 722 mmHg 44%
    06:00 +28°C° 0 mm 2 mps 722 mmHg 44%
    07:00 +29°C° 0 mm 2 mps 722 mmHg 41%
    08:00 +31°C° 0 mm 2 mps 722 mmHg 37%
    09:00 +32°C° 0 mm 2 mps 722 mmHg 34%
    10:00 +35°C° 0 mm 2 mps 722 mmHg 33%
    11:00 +36°C° 0 mm 2 mps 721 mmHg 31%
    12:00 +37°C° 0 mm 3 mps 721 mmHg 30%
    13:00 +38°C° 0 mm 3 mps 721 mmHg 29%
    14:00 +38°C° 0 mm 3 mps 721 mmHg 29%
    15:00 +39°C° 0 mm 3 mps 720 mmHg 29%
    16:00 +38°C° 0 mm 3 mps 720 mmHg 31%
    17:00 +38°C° 0 mm 3 mps 720 mmHg 32%
    18:00 +37°C° 0 mm 3 mps 720 mmHg 34%
    19:00 +36°C° 0 mm 3 mps 721 mmHg 37%
    20:00 +34°C° 0 mm 3 mps 721 mmHg 40%
    21:00 +31°C° 0 mm 3 mps 721 mmHg 43%
    22:00 +30°C° 0 mm 3 mps 721 mmHg 45%
    23:00 +29°C° 0 mm 3 mps 721 mmHg 46%
    Show more